This demonstration page uses our WeatherBlox Daily Observations layout. Learn more.

39.92423, -83.80882

Hourly Observations for April 9, 2015

Temp ( °F °C ) Dew Point ( °F °C ) Humidity (%) Winds ( mph kmh ) Pressure ( in mb ) Visibility ( mi km ) Precip ( " mm )
12:25 am 00:25 Clear with Nearby Thunderstorms 59 15 59 15 100 100 SE 6 9 30 1016 4 6.43736 0 0
12:38 am 00:38 Mostly Clear with Mist and Fog 57 14 57 14 100 100 NE 3 6 30 1016 2.5 4.02335 0 0
12:48 am 00:48 Mostly Cloudy with Mist and Fog 57 14 57 14 100 100 E 5 7 30 1016 3 4.82802 0 0
12:56 am 00:56 Mostly Cloudy with Mist and Fog 58 14.4 58 14.4 100 100 ESE 6 9 30.01 1016 4 6.43736 0 0
1:42 am 01:42 Partly Cloudy with Mist and Fog 57 14 57 14 100 100 ESE 7 11 30 1016 2.5 4.02335 0 0
1:56 am 01:56 Mostly Cloudy with Mist and Fog 59 15 59 15 100 100 SE 7 11 29.99 1016 4 6.43736 0 0
2:56 am 02:56 Mostly Cloudy with Mist and Fog 58 14.4 58 14.4 100 100 SE 8 13 29.95 1014 3 4.82802 0 0
3:35 am 03:35 Mostly Cloudy with Thunderstorms 59 15 59 15 100 100 SSE 7 11 29.94 1014 5 8.0467 0 0
3:56 am 03:56 Mostly Cloudy with Light Thunderstorms 59 15 59 15 100 100 WSW 6 9 29.95 1014 4 6.43736 0 0.0254
4:08 am 04:08 Mostly Cloudy with Light Thunderstorms 61 16 61 16 100 100 SSW 10 17 29.94 1014 2.5 4.02335 0.05 1.27
4:14 am 04:14 Mostly Cloudy with Thunderstorms 63 17 57 14 83 83 SSW 18 30 29.88 1012 1.5 2.41401 0.11 2.794
4:22 am 04:22 Cloudy with Light Thunderstorms 64 18 57 14 78 78 S 13 20 29.88 1012 3 4.82802 0.12 3.048
4:56 am 04:56 Clear 63 17.2 61 16.1 93 93 S 9 15 29.9 1013 7 11.26538 0.12 3.048
5:56 am 05:56 Clear 60 15.5 59 15 97 97 SSE 8 13 29.9 1013 7 11.26538 0.01 0.254
6:56 am 06:56 Clear 59 15 58 14.4 96 96 SE 9 15 29.91 1013 7 11.26538 0 0
7:56 am 07:56 Sunny with Mist and Fog 59 15 58 14.4 96 96 ESE 7 11 29.94 1014 5 8.0467 0 0
8:56 am 08:56 Sunny with Mist and Fog 62 16.6 60 15.5 93 93 SSE 7 11 29.94 1014 5 8.0467 0 0
9:56 am 09:56 Partly Cloudy with Mist and Fog 63 17.2 62 16.6 96 96 SSE 10 17 29.94 1014 5 8.0467 0 0
10:56 am 10:56 Partly Cloudy with Light Thunderstorms 64 17.7 63 17.2 97 97 SSE 10 17 29.91 1013 3 4.82802 0 0.0254
11:01 am 11:01 Mostly Cloudy with Light Thunderstorms 64 18 63 17 94 94 S 10 17 29.88 1012 2 3.21868 0.02 0.508
11:08 am 11:08 Mostly Cloudy with Light Thunderstorms 64 18 63 17 94 94 S 10 17 29.91 1013 1.75 2.816345 0.04 1.016
11:14 am 11:14 Cloudy with Light Thunderstorms 64 18 63 17 94 94 S 9 15 29.88 1012 3 4.82802 0.04 1.016
11:36 am 11:36 Cloudy with Mist and Fog 64 18 64 18 100 100 S 7 11 29.88 1012 5 8.0467 0.04 1.016
11:56 am 11:56 Mostly Cloudy with Mist and Fog 68 20 66 18.8 93 93 S 9 15 29.9 1013 5 8.0467 0.04 1.016
12:28 pm 12:28 Mostly Cloudy with Nearby Thunderstorms 70 21 64 18 83 83 SSW 16 26 29.88 1012 5 8.0467 0 0
12:56 pm 12:56 Mostly Cloudy with Nearby Thunderstorms 70 21.1 66 18.8 87 87 SSW 16 26 29.89 1012 5 8.0467 0 0
1:04 pm 13:04 Mostly Cloudy with Haze 72 22 66 19 83 83 SSW 13 20 29.88 1012 5 8.0467 0 0
1:56 pm 13:56 Mostly Cloudy with Haze 73 22.7 67 19.4 82 82 SSW 15 24 29.86 1011 5 8.0467 0 0
2:40 pm 14:40 Cloudy with Light Rain 72 22 66 19 83 83 SW 18 30 29.85 1011 3 4.82802 0.02 0.508
2:56 pm 14:56 Mostly Cloudy with Light Rain 72 22.2 66 18.8 81 81 SW 18 30 29.83 1010 4 6.43736 0.02 0.508
3:56 pm 15:56 Hazy 71 21.6 65 18.3 82 82 SSW 13 20 29.82 1010 5 8.0467 0.02 0.508
4:56 pm 16:56 Hazy 72 22.2 65 18.3 79 79 SSW 16 26 29.8 1009 5 8.0467 0 0
5:56 pm 17:56 undefined N/A N/A N/A undefined N/A N/A N/A 0 0
6:56 pm 18:56 undefined N/A N/A N/A undefined N/A N/A N/A 0 0
7:04 pm 19:04 Partly Cloudy with Thunderstorms N/A N/A N/A undefined N/A N/A N/A 0 0
7:36 pm 19:36 undefined N/A N/A N/A undefined N/A N/A N/A 0 0
7:56 pm 19:56 undefined N/A N/A N/A undefined N/A N/A N/A 0 0
8:56 pm 20:56 undefined N/A N/A N/A undefined N/A N/A N/A 0 0
9:56 pm 21:56 undefined N/A N/A N/A undefined N/A N/A N/A 0 0
10:56 pm 22:56 undefined N/A N/A N/A undefined N/A N/A N/A 0 0
11:56 pm 23:56 Clear 69 20.5 62 16.6 78 78 SSW 15 24 29.74 1007 7 11.26538 0 0

Powered by AerisWeather